Date String (YYYY-MM-DD hh:mm:ss) UTC,Instrument flags,absolute air pressure of the measurement (hPa),sample flow rate (lpm),inlet stack bypass flow (lpm),air temperature of the measurement (°C),ambient temperature measured by the external sensor (°C),aerosol sample conditioner tube jacket temperature (°C),OPC LED temperature (°C),internal box temperature (°C),relative humidity of the measurement (%),span deviation,mass concentration of particles derived from Lorenz-Mie calculation of OPC scattering (μg/m³),mass concentration of particles derived from Lorenz-Mie calculation of OPC scattering (μg/m³),mass concentration of particles derived from Lorenz-Mie calculation of OPC scattering (μg/m³)
DateTimeUTC,F1_M11,P_M11,Q1_M11,Q2_M11,T1_M11,T2_M11,T3_M11,T4_M11,T5_M11,U1_M11,ZSPAN_M11,X0_M11,X2_M11,X1_M11
2023-12-04 07:00:00,SystemResetWarning,0825.4,5.00,000.00,018.8,017.8,000.0,027.2,020.0,13.0,0000.0,0007.51,0003.13,0002.48
2023-12-04 07:01:00,SystemResetWarning,0825.6,4.99,000.00,018.8,017.8,000.0,027.2,020.0,13.1,0000.0,0008.43,0003.14,0002.46
2023-12-04 07:02:00,SystemResetWarning,0825.5,5.00,000.00,018.8,017.8,000.0,027.2,020.0,13.4,0000.0,0008.50,0003.15,0002.47
2023-12-04 07:03:00,SystemResetWarning,0825.3,5.00,000.00,018.8,017.8,000.0,027.2,020.0,13.6,0000.0,0008.52,0003.15,0002.46
2023-12-04 07:04:00,SystemResetWarning,0825.4,5.00,000.00,018.8,017.8,000.0,027.2,020.0,13.4,0000.0,0008.45,0003.16,0002.46
2023-12-04 07:05:00,SystemResetWarning,0825.3,5.01,000.00,018.8,017.9,000.0,027.2,020.0,13.4,0000.0,0007.96,0003.17,0002.47
2023-12-04 07:06:00,SystemResetWarning,0825.3,5.00,000.00,018.8,017.9,000.0,027.2,020.0,13.2,0000.0,0007.92,0003.18,0002.48
2023-12-04 07:07:00,SystemResetWarning,0825.2,5.00,000.00,018.8,017.9,000.0,027.2,020.0,13.2,0000.0,0007.79,0003.16,0002.46
2023-12-04 07:08:00,SystemResetWarning,0825.1,5.00,000.00,018.8,017.9,000.0,027.2,020.0,13.2,0000.0,0007.65,0003.14,0002.45
2023-12-04 07:09:00,SystemResetWarning,0825.1,5.00,000.00,018.8,017.9,000.0,027.2,020.0,13.3,0000.0,0007.55,0003.11,0002.44
2023-12-04 07:10:00,SystemResetWarning,0825.2,5.00,000.00,018.8,017.8,000.0,027.2,020.0,13.4,0000.0,0007.27,0003.10,0002.43
2023-12-04 07:11:00,SystemResetWarning,0825.3,5.00,000.00,018.8,017.8,000.0,027.2,020.0,13.6,0000.0,0006.90,0003.11,0002.44
2023-12-04 07:12:00,SystemResetWarning,0825.3,5.00,000.00,018.8,017.8,000.0,027.2,020.0,13.6,0000.0,0005.50,0003.09,0002.44
2023-12-04 07:13:00,SystemResetWarning,0825.2,5.00,000.00,018.8,017.8,000.0,027.2,020.0,13.4,0000.0,0006.15,0003.12,0002.43
2023-12-04 07:14:00,SystemResetWarning,0825.1,5.00,000.00,018.8,017.8,000.0,027.2,020.0,13.6,0000.0,0006.62,0003.17,0002.45
2023-12-04 07:15:00,SystemResetWarning,0825.2,5.00,000.00,018.8,017.8,000.0,027.2,020.0,13.8,0000.0,0006.54,0003.18,0002.45
2023-12-04 07:16:00,SystemResetWarning,0825.3,5.01,000.00,018.7,017.8,000.0,027.2,020.0,13.6,0000.0,0006.31,0003.14,0002.45
2023-12-04 07:17:00,SystemResetWarning,0825.3,5.00,000.00,018.7,017.8,000.0,027.2,020.0,13.6,0000.0,0006.31,0003.14,0002.46
2023-12-04 07:18:00,SystemResetWarning,0825.2,5.00,000.00,018.7,017.7,000.0,027.2,020.0,13.5,0000.0,0006.37,0003.15,0002.48
2023-12-04 07:19:00,SystemResetWarning,0825.1,5.00,000.00,018.7,017.8,000.0,027.2,020.0,13.5,0000.0,0006.36,0003.16,0002.49
2023-12-04 07:20:00,SystemResetWarning,0825.1,5.00,000.00,018.7,017.8,000.0,027.2,020.0,13.6,0000.0,0006.39,0003.18,0002.49
2023-12-04 07:21:00,SystemResetWarning,0825.1,5.00,000.00,018.8,017.8,000.0,027.2,020.0,13.5,0000.0,0006.27,0003.18,0002.50
2023-12-04 07:22:00,SystemResetWarning,0825.1,5.00,000.00,018.8,017.8,000.0,027.2,020.0,13.5,0000.0,0005.99,0003.18,0002.52
2023-12-04 07:23:00,SystemResetWarning,0825.1,5.01,000.00,018.7,017.8,000.0,027.2,020.0,13.4,0000.0,0005.78,0003.18,0002.53
2023-12-04 07:24:00,SystemResetWarning,0825.1,5.00,000.00,018.8,017.8,000.0,027.2,020.0,13.4,0000.0,0005.38,0003.16,0002.52
2023-12-04 07:25:00,SystemResetWarning,0825.1,5.00,000.00,018.7,017.8,000.0,027.2,020.0,13.4,0000.0,0004.65,0003.12,0002.50
2023-12-04 07:26:00,SystemResetWarning,0825.1,4.99,000.00,018.8,017.8,000.0,027.2,020.0,13.6,0000.0,0004.41,0003.06,0002.50
2023-12-04 07:27:00,SystemResetWarning,0825.0,5.00,000.00,018.8,017.8,000.0,027.2,020.0,13.5,0000.0,0004.52,0003.10,0002.50
2023-12-04 07:28:00,SystemResetWarning,0824.9,5.00,000.00,018.8,017.8,000.0,027.2,020.0,13.4,0000.0,0004.50,0003.09,0002.50
2023-12-04 07:29:00,SystemResetWarning,0824.9,5.00,000.00,018.8,017.8,000.0,027.2,020.0,13.4,0000.0,0004.43,0003.07,0002.50
2023-12-04 07:30:00,SystemResetWarning,0824.9,5.00,000.00,018.8,017.8,000.0,027.2,020.0,13.4,0000.0,0004.41,0003.07,0002.50
2023-12-04 07:31:00,SystemResetWarning,0824.9,5.00,000.00,018.8,017.8,000.0,027.2,020.0,13.4,0000.0,0004.84,0003.08,0002.51
2023-12-04 07:32:00,SystemResetWarning,0824.9,4.99,000.00,018.7,017.8,000.0,027.2,020.0,13.4,0000.0,0007.28,0003.10,0002.50
2023-12-04 07:33:00,SystemResetWarning,0825.0,5.00,000.00,018.8,017.8,000.0,027.2,020.0,13.4,0000.0,0007.77,0003.10,0002.48
2023-12-04 07:34:00,SystemResetWarning,0825.1,5.00,000.00,018.8,017.7,000.0,027.2,020.0,13.5,0000.0,0008.03,0003.13,0002.49
2023-12-04 07:35:00,SystemResetWarning,0825.0,5.00,000.00,018.8,017.7,000.0,027.2,020.0,13.5,0000.0,0008.05,0003.14,0002.50
2023-12-04 07:36:00,SystemResetWarning,0824.8,5.00,000.00,018.8,017.7,000.0,027.2,020.0,13.4,0000.0,0008.03,0003.14,0002.51
2023-12-04 07:37:00,SystemResetWarning,0824.7,4.99,000.00,018.8,017.8,000.0,027.2,020.0,13.5,0000.0,0008.15,0003.17,0002.51
2023-12-04 07:38:00,SystemResetWarning,0824.8,5.01,000.00,018.8,017.7,000.0,027.2,020.0,13.5,0000.0,0008.21,0003.18,0002.50
2023-12-04 07:39:00,SystemResetWarning,0824.9,5.00,000.00,018.8,017.7,000.0,027.2,020.1,13.5,0000.0,0008.57,0003.19,0002.49
2023-12-04 07:40:00,SystemResetWarning,0824.8,5.01,000.00,018.8,017.8,000.0,027.1,020.5,13.5,0000.0,0008.93,0003.18,0002.48
2023-12-04 07:41:00,SystemResetWarning,0824.9,5.01,000.00,018.9,018.4,000.0,027.2,020.9,13.3,0000.0,0008.85,0003.16,0002.48
2023-12-04 07:42:00,SystemResetWarning,0824.9,5.00,000.00,019.0,018.7,000.0,027.2,020.7,13.3,0000.0,0008.60,0003.14,0002.48
2023-12-04 07:43:00,SystemResetWarning,0825.0,4.99,000.00,019.0,018.6,000.0,027.2,020.5,13.4,0000.0,0007.11,0003.11,0002.48
2023-12-04 07:44:00,SystemResetWarning,0825.0,4.99,000.00,019.0,018.6,000.0,027.2,020.4,13.5,0000.0,0006.60,0003.11,0002.49
2023-12-04 07:45:00,SystemResetWarning,0825.1,5.01,000.00,019.0,018.5,000.0,027.2,020.3,13.5,0000.0,0006.20,0003.09,0002.49
2023-12-04 07:46:00,SystemResetWarning,0825.0,5.01,000.00,019.0,018.5,000.0,027.2,020.2,13.5,0000.0,0006.21,0003.09,0002.50
2023-12-04 07:47:00,SystemResetWarning,0824.9,4.99,000.00,019.0,018.4,000.0,027.2,020.2,13.5,0000.0,0006.52,0003.08,0002.50
2023-12-04 07:48:00,SystemResetWarning,0824.9,4.99,000.00,018.9,018.3,000.0,027.2,020.1,13.5,0000.0,0006.62,0003.08,0002.52
2023-12-04 07:49:00,SystemResetWarning,0824.9,4.99,000.00,018.9,018.3,000.0,027.2,020.1,13.4,0000.0,0006.57,0003.08,0002.56
2023-12-04 07:50:00,SystemResetWarning,0824.8,5.00,000.00,018.9,018.2,000.0,027.2,020.0,13.5,0000.0,0006.19,0003.08,0002.59
2023-12-04 07:51:00,SystemResetWarning,0824.9,5.02,000.00,018.9,018.1,000.0,027.2,020.0,13.6,0000.0,0005.18,0003.09,0002.61
2023-12-04 07:52:00,SystemResetWarning,0824.9,5.00,000.00,018.9,018.1,000.0,027.2,020.0,13.6,0000.0,0005.34,0003.10,0002.62
2023-12-04 07:53:00,SystemResetWarning,0825.0,5.00,000.00,018.8,018.0,000.0,027.2,020.0,13.6,0000.0,0006.49,0003.12,0002.65
2023-12-04 07:54:00,SystemResetWarning,0825.1,4.99,000.00,018.8,018.0,000.0,027.2,020.0,13.6,0000.0,0006.75,0003.16,0002.65
2023-12-04 07:55:00,SystemResetWarning,0825.2,5.01,000.00,018.9,018.1,000.0,027.2,020.3,13.6,0000.0,0006.90,0003.20,0002.68
2023-12-04 07:56:00,SystemResetWarning,0825.3,5.02,000.00,019.0,018.7,000.0,027.2,020.9,13.6,0000.0,0007.02,0003.25,0002.72
2023-12-04 07:57:00,SystemResetWarning,0825.2,4.99,000.00,019.1,019.0,000.0,027.3,020.8,13.6,0000.0,0007.38,0003.32,0002.78
2023-12-04 07:58:00,SystemResetWarning,0825.2,4.99,000.00,019.1,018.9,000.0,027.3,020.6,13.5,0000.0,0007.71,0003.37,0002.83
2023-12-04 07:59:00,SystemResetWarning,0825.1,5.00,000.00,019.1,018.8,000.0,027.3,020.5,13.5,0000.0,0007.98,0003.43,0002.88
